CW2551 Weather Reports


Display with metric or nautical units.
time (UTC)temp
F
wind
direction
speed
MPH
gust
MPH
rain 1hr
in
rain 24hr
in
rain mn
in
humidity
%
barometer
mb
20260504014105 64 142 0.0 0.0 0.00 0.04 0.04 79 1008.3
20260504014022 64 139 0.0 0.0 0.00 0.04 0.04 79 1008.2
20260504013605 64 139 0.0 0.0 0.00 0.04 0.04 79 1008.2
20260504013105 64 133 0.0 0.0 0.00 0.04 0.04 79 1008.2
20260504013024 64 94 0.0 0.0 0.00 0.04 0.04 79 1008.4
20260504012605 64 94 0.0 0.0 0.00 0.04 0.04 79 1008.4
20260504012106 64 81 1.0 3.0 0.00 0.04 0.04 79 1008.3
20260504011605 64 159 0.0 2.0 0.00 0.04 0.04 79 1008.2
20260504011106 64 123 0.0 0.0 0.00 0.04 0.04 79 1008.2
20260504011022 64 123 0.0 3.0 0.00 0.04 0.04 79 1008.3
20260504010605 64 123 0.0 3.0 0.00 0.04 0.04 79 1008.3
20260504010105 64 93 1.0 8.0 0.00 0.04 0.04 78 1008.2
20260504005605 64 214 0.0 0.0 0.00 0.04 0.04 78 1007.9
20260504005106 64 231 0.0 0.0 0.04 0.04 0.04 78 1008.0
20260504005021 64 236 0.0 0.0 0.04 0.04 0.04 78 1008.0
20260504004605 64 236 0.0 0.0 0.04 0.04 0.04 78 1008.0
20260504004105 64 243 0.0 0.0 0.04 0.04 0.04 77 1008.0
20260504004023 64 244 0.0 0.0 0.04 0.04 0.04 75 1008.2
20260504003604 64 244 0.0 0.0 0.04 0.04 0.04 75 1008.2
20260504003106 64 265 0.0 0.0 0.04 0.04 0.04 75 1008.0
20260504003023 64 314 0.0 0.0 0.04 0.04 0.04 76 1008.0
20260504002604 64 314 0.0 0.0 0.04 0.04 0.04 76 1008.0
20260504002105 64 338 0.0 5.0 0.04 0.04 0.04 76 1008.3
20260504002023 64 22 1.0 5.0 0.04 0.04 0.04 77 1008.5
20260504001604 64 22 1.0 5.0 0.04 0.04 0.04 77 1008.5
20260504001106 64 66 1.0 8.0 0.04 0.04 0.04 77 1008.6
20260504001022 64 13 3.0 9.0 0.04 0.04 0.04 76 1008.2
20260504000604 64 13 3.0 9.0 0.04 0.04 0.04 76 1008.2
20260504000105 64 221 0.0 0.0 0.04 0.04 0.04 74 1007.5
20260504000024 64 219 0.0 1.0 0.04 0.04 0.04 73 1007.4
20260503235105 64 214 1.0 8.0 0.00 0.00 0.00 73 1007.5
20260503235022 65 220 0.0 12.0 0.00 0.00 0.00 71 1007.5
20260503234604 65 220 0.0 12.0 0.00 0.00 0.00 71 1007.5
20260503234106 66 164 7.0 18.0 0.00 0.00 0.00 70 1007.7
20260503234023 67 158 7.0 18.0 0.00 0.00 0.00 68 1007.8
20260503233604 67 158 7.0 18.0 0.00 0.00 0.00 68 1007.8
20260503233023 72 137 9.0 17.0 0.00 0.00 0.00 58 1008.2
20260503232605 72 137 9.0 17.0 0.00 0.00 0.00 58 1008.2
20260503232106 75 140 8.0 16.0 0.00 0.00 0.00 50 1007.9
20260503232022 78 131 9.0 17.0 0.00 0.00 0.00 43 1007.7
20260503231605 78 131 9.0 17.0 0.00 0.00 0.00 43 1007.7
20260503231106 79 149 6.0 13.0 0.00 0.00 0.00 38 1007.2
20260503231024 81 161 6.0 12.0 0.00 0.00 0.00 35 1006.9
20260503230104 81 168 1.0 6.0 0.00 0.00 0.00 35 1006.6
20260503230024 82 213 0.0 1.0 0.00 0.00 0.00 39 1006.2
20260503225605 82 213 0.0 1.0 0.00 0.00 0.00 39 1006.2
20260503225105 82 213 0.0 3.0 0.00 0.00 0.00 35 1006.0
20260503224605 83 206 2.0 6.0 0.00 0.00 0.00 33 1005.8
20260503223605 84 86 6.0 15.0 0.00 0.00 0.00 28 1006.1
20260503222604 85 118 3.0 3.0 0.00 0.00 0.00 32 1006.5
20260503222105 84 93 2.0 6.0 0.00 0.00 0.00 33 1006.4
20260503222022 83 265 0.0 0.0 0.00 0.00 0.00 37 1006.4
20260503221605 83 265 0.0 0.0 0.00 0.00 0.00 37 1006.4
20260503221106 82 265 0.0 1.0 0.00 0.00 0.00 40 1006.3
20260503221022 81 265 0.0 0.0 0.00 0.00 0.00 39 1006.4
20260503220605 81 265 0.0 0.0 0.00 0.00 0.00 39 1006.4
20260503215104 81 265 0.0 2.0 0.00 0.00 0.00 46 1006.5
20260503215023 80 267 0.0 3.0 0.00 0.00 0.00 41 1006.6
20260503214605 80 267 0.0 3.0 0.00 0.00 0.00 41 1006.6
20260503214022 79 267 0.0 3.0 0.00 0.00 0.00 44 1006.9
20260503213604 79 267 0.0 3.0 0.00 0.00 0.00 44 1006.9
20260503213104 79 267 1.0 3.0 0.00 0.00 0.00 42 1007.1
20260503213025 80 270 0.0 0.0 0.00 0.00 0.00 44 1007.2
20260503212605 80 270 0.0 0.0 0.00 0.00 0.00 44 1007.2
20260503212023 80 270 0.0 0.0 0.00 0.00 0.00 44 1007.4
20260503211605 80 270 0.0 0.0 0.00 0.00 0.00 44 1007.4
20260503211106 81 270 2.0 3.0 0.00 0.00 0.00 39 1007.5
20260503211022 81 226 0.0 0.0 0.00 0.00 0.00 39 1007.5
20260503210604 81 226 0.0 0.0 0.00 0.00 0.00 39 1007.5
20260503210107 80 226 0.0 1.0 0.00 0.00 0.00 41 1007.6
20260503210024 79 226 0.0 3.0 0.00 0.00 0.00 42 1007.7
20260503205605 79 226 0.0 3.0 0.00 0.00 0.00 42 1007.7
20260503205105 79 227 1.0 3.0 0.00 0.00 0.00 44 1007.7
20260503205024 79 227 0.0 6.0 0.00 0.00 0.00 45 1007.6
20260503204605 79 227 0.0 6.0 0.00 0.00 0.00 45 1007.6
20260503204105 78 14 1.0 3.0 0.00 0.00 0.00 47 1007.7
20260503204022 77 34 0.0 3.0 0.00 0.00 0.00 46 1007.7
20260503203605 77 34 0.0 3.0 0.00 0.00 0.00 46 1007.7
20260503203108 77 35 0.0 3.0 0.00 0.00 0.00 46 1007.9
20260503203023 77 36 0.0 0.0 0.00 0.00 0.00 49 1008.1
20260503202605 77 36 0.0 0.0 0.00 0.00 0.00 49 1008.1
20260503202106 77 36 0.0 0.0 0.00 0.00 0.00 51 1008.1
20260503202021 77 36 0.0 0.0 0.00 0.00 0.00 49 1008.2
20260503201604 77 36 0.0 0.0 0.00 0.00 0.00 49 1008.2
20260503201106 77 36 0.0 0.0 0.00 0.00 0.00 45 1008.2
20260503201022 76 36 0.0 0.0 0.00 0.00 0.00 43 1008.2
20260503200105 76 36 0.0 1.0 0.00 0.00 0.00 48 1008.1
20260503200026 76 36 0.0 0.0 0.00 0.00 0.00 53 1008.2
20260503195605 76 36 0.0 0.0 0.00 0.00 0.00 53 1008.2
20260503195105 76 36 0.0 0.0 0.00 0.00 0.00 51 1008.3
20260503194605 76 36 0.0 0.0 0.00 0.00 0.00 46 1008.5
20260503194104 76 36 0.0 0.0 0.00 0.00 0.00 45 1008.4
20260503194023 76 36 0.0 0.0 0.00 0.00 0.00 54 1008.5
20260503193605 76 36 0.0 0.0 0.00 0.00 0.00 54 1008.5
20260503193105 75 36 0.0 0.0 0.00 0.00 0.00 46 1008.5
20260503193025 75 36 0.0 0.0 0.00 0.00 0.00 47 1008.6
20260503192605 75 36 0.0 0.0 0.00 0.00 0.00 47 1008.6
20260503191605 75 37 0.0 0.0 0.00 0.00 0.00 44 1008.8
20260503191104 76 36 2.0 3.0 0.00 0.00 0.00 45 1008.8
20260503191022 76 44 0.0 3.0 0.00 0.00 0.00 46 1009.0
20260503185604 77 46 0.0 3.0 0.00 0.00 0.00 42 1009.1
20260503185023 77 47 0.0 3.0 0.00 0.00 0.00 46 1009.1
20260503184605 77 47 0.0 3.0 0.00 0.00 0.00 46 1009.1
20260503184105 77 49 0.0 3.0 0.00 0.00 0.00 47 1009.1
20260503184021 77 49 1.0 3.0 0.00 0.00 0.00 49 1009.3
20260503183605 77 49 1.0 3.0 0.00 0.00 0.00 49 1009.3
20260503183104 77 46 0.0 0.0 0.00 0.00 0.00 46 1009.2
20260503183023 77 46 0.0 0.0 0.00 0.00 0.00 48 1009.3
20260503182605 77 46 0.0 0.0 0.00 0.00 0.00 48 1009.3
20260503182104 77 46 0.0 0.0 0.00 0.00 0.00 44 1009.3
20260503182022 77 46 1.0 3.0 0.00 0.00 0.00 43 1009.4
20260503181604 77 46 1.0 3.0 0.00 0.00 0.00 43 1009.4
20260503181104 77 50 1.0 3.0 0.00 0.00 0.00 45 1009.4
20260503180605 76 50 0.0 1.0 0.00 0.00 0.00 46 1009.4
20260503180024 75 171 0.0 3.0 0.00 0.00 0.00 49 1009.6
20260503175605 75 171 0.0 3.0 0.00 0.00 0.00 49 1009.6
20260503175105 75 172 0.0 2.0 0.00 0.00 0.00 51 1009.5
20260503175022 74 173 0.0 1.0 0.00 0.00 0.00 49 1009.6
20260503174605 74 173 0.0 1.0 0.00 0.00 0.00 49 1009.6
20260503174021 73 173 0.0 3.0 0.00 0.00 0.00 50 1009.7
20260503173606 73 173 0.0 3.0 0.00 0.00 0.00 50 1009.7
20260503173105 73 169 0.0 5.0 0.00 0.00 0.00 50 1009.8
20260503173023 72 172 1.0 3.0 0.00 0.00 0.00 52 1009.9
20260503172604 72 172 1.0 3.0 0.00 0.00 0.00 52 1009.9
20260503172104 72 153 1.0 3.0 0.00 0.00 0.00 51 1009.9
20260503172022 71 153 2.0 5.0 0.00 0.00 0.00 52 1010.1
20260503171606 71 153 2.0 5.0 0.00 0.00 0.00 52 1010.1
20260503171105 70 167 0.0 1.0 0.00 0.00 0.00 54 1010.0
20260503171021 70 167 0.0 0.0 0.00 0.00 0.00 58 1010.0
20260503170604 70 167 0.0 0.0 0.00 0.00 0.00 58 1010.0
20260503160106 63 246 0.0 3.0 0.00 0.00 0.00 74 1010.6
20260503131104 52 242 0.0 0.0 0.00 0.00 0.00 88 1010.0
20260503131024 52 242 0.0 0.0 0.00 0.00 0.00 88 1009.8
20260503130605 52 242 0.0 0.0 0.00 0.00 0.00 88 1009.8
20260503130105 52 242 0.0 0.0 0.00 0.00 0.00 88 1009.7
20260503120106 52 242 0.0 0.0 0.00 0.00 0.00 86 1009.8
20260503110605 53 242 0.0 0.0 0.00 0.00 0.00 85 1009.9
20260503110105 53 242 0.0 0.0 0.00 0.00 0.00 85 1009.9
20260503090104 55 243 0.0 0.0 0.00 0.00 0.00 83 1010.1
20260503081605 55 243 0.0 0.0 0.00 0.00 0.00 82 1009.9
20260503081106 55 243 0.0 0.0 0.00 0.00 0.00 81 1010.0
20260503080605 55 243 0.0 0.0 0.00 0.00 0.00 81 1010.0
20260503080105 56 243 0.0 0.0 0.00 0.00 0.00 81 1010.0
20260503072606 56 243 0.0 0.0 0.00 0.00 0.00 80 1010.0
20260503072104 57 243 0.0 0.0 0.00 0.00 0.00 80 1009.9
20260503072023 57 243 0.0 0.0 0.00 0.00 0.00 80 1010.0
20260503071105 57 243 0.0 0.0 0.00 0.00 0.00 79 1010.1
20260503071024 57 243 0.0 0.0 0.00 0.00 0.00 79 1010.1
20260503070604 57 243 0.0 0.0 0.00 0.00 0.00 79 1010.1
20260503070104 57 243 0.0 0.0 0.00 0.00 0.00 79 1010.0
20260503060104 59 243 0.0 0.0 0.00 0.00 0.00 74 1009.6
20260503055107 59 243 0.0 0.0 0.00 0.00 0.00 73 1009.7
20260503055023 59 243 0.0 0.0 0.00 0.00 0.00 73 1009.7
20260503054605 59 243 0.0 0.0 0.00 0.00 0.00 73 1009.7
20260503054022 60 244 0.0 0.0 0.00 0.00 0.00 74 1009.5
20260503053605 60 244 0.0 0.0 0.00 0.00 0.00 74 1009.5
20260503053105 60 244 0.0 0.0 0.00 0.00 0.00 75 1009.5
20260503053023 60 244 0.0 0.0 0.00 0.00 0.00 74 1009.5
20260503052605 60 244 0.0 0.0 0.00 0.00 0.00 74 1009.5
20260503052107 60 244 0.0 0.0 0.00 0.00 0.00 74 1009.2
20260503052022 61 244 0.0 0.0 0.00 0.00 0.00 74 1009.2
20260503051605 61 244 0.0 0.0 0.00 0.00 0.00 74 1009.2
20260503051106 61 244 0.0 0.0 0.00 0.00 0.00 73 1009.2
20260503051022 61 244 0.0 0.0 0.00 0.00 0.00 72 1009.1
20260503050605 61 244 0.0 0.0 0.00 0.00 0.00 72 1009.1
20260503050105 61 244 0.0 0.0 0.00 0.00 0.00 72 1009.1
20260503045605 62 244 0.0 0.0 0.00 0.00 0.00 72 1009.0
20260503045106 62 244 0.0 0.0 0.00 0.00 0.00 71 1009.0
20260503045022 62 244 0.0 0.0 0.00 0.00 0.00 70 1009.0
20260503044604 62 244 0.0 0.0 0.00 0.00 0.00 70 1009.0
20260503044104 62 244 0.0 0.0 0.00 0.00 0.00 70 1009.0
20260503044023 62 244 0.0 0.0 0.00 0.00 0.00 70 1008.9
20260503043604 62 244 0.0 0.0 0.00 0.00 0.00 70 1008.9
20260503043106 63 244 0.0 0.0 0.00 0.00 0.00 71 1008.8
20260503043022 63 244 0.0 0.0 0.00 0.00 0.00 71 1008.6
20260503042105 63 244 0.0 0.0 0.00 0.00 0.00 70 1008.6
20260503041104 64 244 0.0 0.0 0.00 0.00 0.00 70 1008.4
20260503041023 64 244 0.0 0.0 0.00 0.00 0.00 69 1008.2
20260503040604 64 244 0.0 0.0 0.00 0.00 0.00 69 1008.2
20260503040104 65 244 0.0 0.0 0.00 0.00 0.00 68 1008.1
20260503040024 65 244 0.0 0.0 0.00 0.00 0.00 68 1008.1
20260503035605 65 244 0.0 0.0 0.00 0.00 0.00 68 1008.1
20260503035106 65 244 0.0 0.0 0.00 0.00 0.00 67 1008.1
20260503035022 65 244 0.0 0.0 0.00 0.00 0.00 67 1008.0
20260503034604 65 244 0.0 0.0 0.00 0.00 0.00 67 1008.0
20260503034104 66 244 0.0 0.0 0.00 0.00 0.00 68 1008.0
20260503034023 66 244 0.0 0.0 0.00 0.00 0.00 67 1008.0
20260503033605 66 244 0.0 0.0 0.00 0.00 0.00 67 1008.0
20260503033105 66 244 0.0 0.0 0.00 0.00 0.00 66 1007.9
20260503033023 67 244 0.0 0.0 0.00 0.00 0.00 66 1007.8
20260503032605 67 244 0.0 0.0 0.00 0.00 0.00 66 1007.8
20260503031604 67 244 0.0 0.0 0.00 0.00 0.00 64 1007.7
20260503031105 67 244 0.0 0.0 0.00 0.00 0.00 63 1007.6
20260503031025 68 244 0.0 0.0 0.00 0.00 0.00 64 1007.6
20260503030105 68 244 0.0 0.0 0.00 0.00 0.00 65 1007.5
20260503030025 68 244 0.0 0.0 0.00 0.01 0.00 64 1007.3
20260503025605 68 244 0.0 0.0 0.00 0.01 0.00 64 1007.3
20260503025104 69 243 0.0 0.0 0.00 0.02 0.00 62 1007.3
20260503025023 69 243 0.0 0.0 0.00 0.03 0.00 62 1007.2
20260503024604 69 243 0.0 0.0 0.00 0.03 0.00 62 1007.2
20260503024106 69 243 0.0 0.0 0.00 0.03 0.00 61 1007.1
20260503024022 69 243 0.0 0.0 0.00 0.03 0.00 61 1007.1
20260503023106 69 243 0.0 0.0 0.00 0.03 0.00 61 1007.2
20260503023024 70 243 0.0 0.0 0.00 0.03 0.00 60 1007.1
20260503022106 70 243 0.0 0.0 0.00 0.03 0.00 59 1007.1
20260503022021 70 243 0.0 0.0 0.00 0.03 0.00 59 1007.1
20260503021604 70 243 0.0 0.0 0.00 0.03 0.00 59 1007.1
20260503021106 70 243 0.0 0.0 0.00 0.03 0.00 59 1007.0
20260503021025 70 243 0.0 0.0 0.00 0.03 0.00 58 1006.9
20260503020606 70 243 0.0 0.0 0.00 0.03 0.00 58 1006.9
20260503020104 71 243 0.0 0.0 0.00 0.03 0.00 58 1006.7
20260503015604 71 243 0.0 0.0 0.00 0.03 0.00 59 1006.7
20260503015105 71 243 0.0 0.0 0.00 0.03 0.00 59 1006.7